SCP
0 0 0 0 0 0 0 0 0 0 0 0 0 0 0 0 0 0 0 0 0 0 0 0 0 0 0 0 0 0 0 0 0 0 0 0 0 0 0 0 0 0 0 0
0 0 0 0 0 0 0 0 0 0 0 0 0 0 0 0 0 0 0 0 0 0 0 0 0 0 0 0 0 0 0 0 0 0 0 0 0 0 0 0 0 0 0 0
0 0 0 0 0 0 0 0 0 0 0 0 0 0 0 0 0 0 0 0 0 0 0 0 0 0 0 0 0 0 0 0 0 0 0 0 0 0 0 0 0 0 0 0
0 0 0 0 0 0 0 0 0 0 0 0 0 0 0 0 0 0 0 0 0 0 0 0 0 0 0 0 0 0 0 0 0 0 0 0 0 0 0 0 0 0 0 0
0 0 0 0 0 0 0 0 0 0 0 0 0 -0 -0 -0 -0 -0 0 0 0 0 0 0 0 0 0 0 0 0 0 0 0 0 0 0 0 0 0 0 0 0 0 0
0 0 0 0 0 0 0 0 0 0 -0 -0 -0 -0 0 0 0 0 0 0 0 0 0 0 0 0 0 0 0 0 0 0 0 0 0 0 0 0 0 0 0 0 0 0
0 0 0 0 0 0 0 0 -0 -0 -0 -0 -0 0 0 0 0 0 0 0 0 0 0 0 0 0 0 0 0 0 0 0 0 0 0 0 0 0 0 0 0 0 0 0
0 0 0 0 -0 0 0 0 -0 -0 -0 -0 0 0 0 0 0 0 0 0 0 0 0 0 0 0 0 0 0 0 0 0 0 0 0 0 0 0 0 0 0 0 0 0
0 0 0 0 0 0 0 -0 -0 -0 -0 0 0 0 0 0 0 0 0 -0 0 0 0 0 0 0 0 0 0 0 0 -0 -0 0 0 0 0 0 0 0 0 0 0 0
0 0 0 0 0 0 0 -0 -0 -0 -0 -0 -0 0 -0 0 0 -0 0 0 0 0 0 -0 -0 0 -0 0 0 0 0 0 0 0 -0 0 0 0 0 0 0 0 0 0
0 0 0 0 0 0 -0 0 0 -0 -0 0 0 0 0 -0 0 0 -0 0 0 0 -0 -0 -0 0 0 0 0 0 0 0 0 0 0 0 0 0 0 0 0 0 0 0
0 0 0 -0 -0 0 -0 -0 -0 0 -0 0 0 0 0 0 0 -0 0 -0 0 -0 -0 0 0 0 0 0 0 0 0 0 0 0 0 0 0 0 0 0 0 0 0 0
0 0 0 0 -0 -0 -0 0 0 -0 -0 0 0 0 0 0 0 0 0 0 0 0 0 0 0 0 0 0 0 0 0 0 0 0 0 0 0 0 0 0 -0 -0 -0 -0
0 0 0 0 0 -0 -0 -0 -0 -0 -0 0 0 0 0 0 0 0 0 0 0 0 0 0 0 0 0 0 0 0 0 0 0 0 0 0 0 0 0 0 0 0 -0 -0
0 0 -0 -0 -0 -0 -0 -0 -0 -0 0 0 0 0 0 0 0 0 0 0 0 0 0 0 0 0 0 0 0 0 0 0 0 0 0 0 0 0 0 0 0 0 0 0
0 -0 -0 -0 -0 -0 -0 -0 0 0 0 0 0 0 0 0 0 0 0 0 0 0 0 0 0 0 0 0 0 0 0 0 0 0 0 0 0 0 0 0 0 0 0 0
-0 -0 -0 -0 -0 -0 -0 0 0 0 0 0 0 0 0 0 0 0 0 0 0 0 0 0 0 0 0 0 0 0 0 0 0 0 0 0 0 0 0 0 0 0 0 0
-0 -0 -0 -0 -0 -0 0 0 0 0 0 0 0 0 0 0 0 0 0 0 0 0 0 0 0 0 0 0 0 0 0 0 0 0 0 0 0 0 0 0 0 0 0 0
-0 0 -0 -0 -0 0 0 0 0 0 0 0 0 0 -0 -0 0 0 0 0 0 0 0 0 0 0 0 0 0 0 0 0 0 0 0 0 0 0 0 0 0 0 0 0
-0 0 -0 -0 0 0 -0 0 0 0 0 0 0 -0 0 0 0 0 0 0 0 0 0 0 0 0 0 0 0 0 0 0 0 0 0 0 0 0 0 0 0 0 0 0
0 0 -0 -0 0 0 0 0 0 0 0 0 0 0 0 0 0 0 0 0 0 0 0 0 0 0 0 0 0 0 0 0 0 0 0 0 0 0 0 0 0 0 0 -0
-0 -0 -0 0 0 0 0 0 0 0 0 0 0 0 0 0 0 0 0 0 0 0 0 0 0 0 0 0 0 0 0 0 0 0 0 0 0 0 -0 -0 -0 -0 -0 -0
-0 -0 0 0 0 0 0 0 0 0 0 0 0 0 0 0 0 0 0 0 0 0 0 0 0 0 0 0 0 0 0 0 0 0 0 0 -0 -0 -0 -0 -0 -0 -0 -0
-0 0 0 0 0 0 0 0 0 0 0 0 0 0 0 0 0 0 0 0 0 0 0 0 0 0 0 0 0 0 0 0 0 -0 -0 -0 -0 -0 -0 -0 -0 -0 -0 -0
-0 -0 0 0 0 0 0 0 0 0 0 0 0 0 0 0 0 0 0 0 0 0 0 0 0 0 0 0 0 0 -0 -0 -0 -0 -0 -0 -0 -0 -0 -0 -0 -0 -0 -0
0 0 0 0 0 0 0 0 0 0 0 0 0 0 0 0 0 0 0 0 0 0 0 0 0 0 0 -0 -0 -0 -0 -0 -0 -0 -0 -0 0 0 0 -0 -0 -0 -0 -0
0 0 0 0 0 0 0 0 0 0 0 0 0 0 0 0 0 0 0 0 0 0 0 0 0 -0 -0 -0 -0 -0 -0 -0 -0 0 0 0 0 -0 -0 -0 -0 -0 -0 -0
Wind_Speed_500mb
14 15 16 33 38 33 32 42 21 61 51 52 33 20 19 17 24 40 52 59 67 62 65 69 75 80 71 72 71 60 67 82 77 60 52 43 40 36 35 28 26 18 20 31
27 25 32 39 36 39 37 38 36 46 64 32 10 3 12 28 46 55 61 64 62 63 69 73 80 76 70 71 61 61 66 55 60 56 47 41 37 34 32 22 10 4 18 32
10 6 21 12 9 7 5 7 10 17 28 14 18 23 39 50 60 60 61 59 66 66 75 83 86 75 66 62 70 76 71 62 58 49 45 35 38 37 26 17 7 8 26 29
10 15 6 10 8 4 20 22 21 31 8 41 48 50 55 59 64 61 57 60 65 74 82 84 80 69 69 83 82 73 66 61 54 46 42 39 44 28 16 13 11 19 23 19
4 5 17 10 4 7 5 46 25 9 24 43 52 50 48 35 28 42 61 72 80 87 82 79 84 96 101 89 65 61 61 50 45 48 55 44 30 15 10 10 17 16 12 8
3 6 9 11 4 47 18 29 11 40 31 34 46 27 35 45 69 73 75 76 75 72 85 100 99 68 68 66 53 51 52 53 52 26 23 28 20 6 12 20 15 9 8 12
9 8 15 9 35 35 7 15 59 70 55 47 31 32 62 78 79 67 63 71 94 94 77 72 64 57 54 49 47 44 41 42 40 35 32 26 14 15 17 21 19 14 17 31
3 7 14 14 34 5 30 57 59 58 69 69 45 60 58 65 75 72 87 84 73 67 69 68 62 55 51 48 39 32 32 34 26 32 30 21 13 31 24 26 26 35 44 46
11 11 24 57 33 49 48 57 65 73 59 53 57 56 64 63 71 67 76 68 63 63 66 66 59 48 45 34 25 22 21 25 24 23 16 16 43 36 37 38 48 54 46 51
7 10 21 45 71 47 70 72 66 49 56 58 58 53 67 63 65 70 61 59 56 61 61 55 50 19 15 14 17 18 22 21 5 30 46 53 44 45 43 61 61 58 47 58
16 34 44 43 36 65 79 50 53 59 46 51 57 56 58 58 58 53 51 51 54 44 42 34 28 31 26 26 32 33 19 38 57 55 56 58 57 52 57 53 53 51 54 60
13 47 43 50 69 60 69 58 67 47 61 48 47 48 47 46 45 42 46 44 36 34 31 32 36 40 35 29 35 47 60 56 55 56 56 55 56 60 48 49 48 44 45 52
22 55 61 63 57 55 64 64 50 55 45 47 44 40 36 38 36 35 33 35 33 32 30 32 36 36 36 42 55 57 56 59 56 60 58 58 58 57 63 52 48 57 69 76
46 40 43 44 58 61 57 57 49 43 39 36 36 32 31 30 31 28 30 27 30 35 38 37 43 44 38 42 47 53 55 54 55 56 56 57 61 67 68 79 90 84 77 77
29 47 53 52 57 54 55 46 43 44 40 38 33 32 27 30 30 32 29 28 31 36 40 38 39 41 38 43 51 53 52 54 53 58 63 73 78 86 97 99 98 91 77 65
36 56 44 49 47 49 44 41 42 41 37 36 32 26 24 26 27 29 31 31 39 43 40 39 37 31 35 42 47 51 54 57 64 76 86 96 101 110 109 99 87 77 70 61
41 44 45 42 45 41 37 37 35 41 36 29 25 20 21 22 28 32 33 34 37 39 38 39 41 32 36 48 55 59 63 66 76 89 103 96 96 93 89 89 81 74 59 50
38 33 35 36 36 32 36 32 45 41 29 21 18 20 24 31 33 35 33 36 38 39 37 36 35 41 47 55 65 73 81 87 93 100 97 91 95 93 83 76 69 61 56 53
33 29 36 28 26 29 30 47 48 24 18 18 19 23 30 36 36 30 34 40 44 43 37 35 36 45 52 59 67 74 82 89 91 85 93 94 87 80 73 66 63 62 60 56
23 30 28 22 25 28 43 52 35 23 21 26 32 49 52 53 50 42 44 47 38 40 39 45 48 51 57 63 69 77 85 85 91 91 82 81 79 72 63 63 62 58 54 49
22 27 21 20 22 32 44 50 46 41 39 51 54 53 51 49 54 56 64 48 47 46 49 52 56 61 66 74 80 79 81 84 84 81 79 76 71 62 61 59 56 52 47 41
17 21 22 22 26 38 46 58 60 59 45 39 41 45 49 49 44 50 51 55 64 71 78 75 71 67 73 80 84 84 84 84 79 73 70 66 63 59 57 53 49 45 41 41
15 17 18 19 24 32 42 46 39 37 30 33 34 38 42 42 39 38 44 49 59 62 61 59 66 77 79 79 77 73 69 64 61 58 57 56 55 52 47 43 42 39 40 42
11 16 13 19 22 47 57 50 32 28 28 30 30 25 29 39 49 62 76 75 77 78 77 70 64 60 60 59 57 54 52 51 50 49 48 46 44 42 41 40 42 42 43 43
13 19 20 28 46 45 27 30 30 39 43 44 43 44 44 48 57 58 65 73 68 61 53 45 45 44 45 47 46 45 44 43 43 42 41 40 41 41 42 41 41 44 44 43
11 15 17 35 35 14 23 41 47 45 43 46 49 50 54 56 57 56 52 46 41 39 39 38 38 40 40 39 38 38 39 39 39 39 39 39 39 39 40 42 43 41 41 40
14 24 31 35 19 27 30 35 46 43 40 40 40 35 33 38 40 38 37 39 38 37 36 35 33 34 36 36 36 35 35 35 35 38 38 38 36 35 36 38 37 36 37 38
Wind_Direction_500mb
264 279 286 278 275 273 262 262 233 275 268 275 270 251 214 233 285 298 298 307 311 311 310 310 307 307 300 299 305 295 292 295 298 299 301 294 287 288 295 274 284 271 298 291
282 269 261 270 273 271 273 278 279 279 274 294 231 162 282 299 309 302 301 303 306 305 304 303 306 304 296 299 294 294 297 294 295 300 299 297 293 284 295 279 284 295 286 288
273 359 301 291 216 175 296 252 308 311 324 359 340 321 313 302 297 291 291 292 293 295 300 306 311 306 297 288 289 293 291 287 287 296 288 297 292 284 291 275 256 261 271 281
286 339 289 257 163 128 331 290 296 272 345 322 303 294 292 297 289 285 286 292 294 299 305 306 305 296 289 288 289 287 282 281 279 282 277 284 283 280 270 273 233 257 269 288
230 254 283 327 1 343 324 299 296 346 309 310 314 313 294 302 298 305 302 302 301 304 302 297 295 291 290 291 290 286 277 265 264 275 277 280 276 272 263 232 219 241 249 296
25 264 262 226 260 336 307 279 142 342 316 301 319 305 300 316 315 312 308 304 300 297 296 292 293 295 289 282 278 265 267 267 275 262 251 253 232 260 267 203 210 203 173 157
248 264 278 245 349 335 65 278 323 322 307 302 299 285 307 312 312 311 306 304 304 301 298 295 297 295 290 286 278 276 273 266 255 248 242 227 196 244 228 205 177 151 136 129
349 242 281 7 350 13 308 312 311 314 313 301 303 309 309 311 311 310 311 310 311 311 309 306 302 295 286 281 277 272 262 255 234 223 217 196 243 194 198 177 162 139 133 123
204 234 282 316 305 300 311 305 312 311 311 321 312 310 310 309 309 315 318 320 322 319 316 311 305 290 276 270 258 241 243 211 203 179 188 184 186 185 168 166 154 134 121 125
352 269 301 314 305 297 316 305 309 314 317 311 308 310 313 316 319 320 325 327 331 332 330 335 329 253 225 199 189 190 177 154 137 141 154 167 175 171 165 154 142 127 131 131
253 279 315 304 302 318 314 315 323 320 315 318 319 319 321 322 322 327 332 339 343 344 3 23 61 101 118 127 132 133 126 139 146 155 159 161 158 153 147 144 139 132 139 140
286 302 289 307 316 320 323 323 322 318 325 328 325 323 327 330 334 340 345 350 359 23 46 62 78 91 99 114 128 135 138 146 149 148 151 151 145 138 140 142 138 137 141 140
288 298 302 308 311 324 324 323 322 329 332 331 331 332 339 339 351 354 0 13 25 45 63 86 97 96 105 123 132 138 142 140 141 138 140 136 136 135 131 129 128 121 124 124
314 316 317 320 316 324 328 325 335 341 343 345 345 349 350 2 9 12 12 30 46 63 73 86 99 102 117 133 138 138 138 137 136 132 131 131 131 128 125 120 116 116 119 121
308 326 326 318 323 329 329 340 348 348 349 354 357 356 7 17 20 31 38 51 67 75 82 90 98 106 121 130 130 129 131 131 130 129 128 128 127 126 124 122 120 120 122 123
318 330 323 329 330 335 342 347 350 359 4 3 2 13 24 27 41 45 48 63 75 78 85 90 93 103 116 125 125 124 124 128 129 129 128 126 125 123 122 122 123 126 124 123
328 324 331 334 338 342 347 351 5 12 6 2 18 28 34 48 62 58 63 71 78 83 87 89 95 107 120 124 123 123 126 129 130 131 126 118 118 119 124 129 126 119 127 132
328 330 337 332 341 350 356 7 7 9 4 13 33 45 52 63 70 70 72 81 87 87 87 94 109 117 121 123 123 126 127 129 130 126 123 122 124 124 125 128 126 129 129 129
341 339 344 354 1 4 17 14 10 14 30 42 50 64 72 77 76 84 87 89 89 88 90 101 109 117 122 126 127 128 130 129 123 121 126 131 135 133 130 132 131 128 124 125
351 344 359 8 15 38 32 32 36 51 67 72 81 90 84 85 75 78 85 82 86 91 105 111 114 116 120 124 127 128 125 121 129 136 138 135 131 132 129 128 125 124 127 127
357 0 21 30 55 44 47 46 46 64 79 99 92 89 86 81 78 76 81 95 91 104 109 111 109 112 116 116 121 122 128 130 130 130 132 135 136 130 128 126 127 129 128 125
15 26 53 71 77 59 54 68 70 82 88 87 91 93 89 82 78 72 73 83 90 100 99 99 99 107 118 124 123 125 127 129 131 131 131 132 132 130 130 130 129 126 124 119
35 51 64 91 92 85 74 67 59 69 75 79 84 91 92 89 80 67 88 98 106 106 104 107 116 119 123 126 127 128 129 129 129 128 129 129 129 129 128 127 124 123 121 121
55 50 91 103 109 105 97 84 61 43 56 72 81 82 79 84 88 96 104 105 106 106 107 111 115 117 118 120 122 124 125 126 125 126 125 125 127 128 128 126 124 124 124 123
43 57 101 119 121 105 74 54 67 79 82 83 90 93 97 98 101 107 110 112 111 108 106 109 114 115 113 114 115 115 116 118 121 123 125 126 127 128 127 128 127 127 125 123
108 93 116 138 131 98 83 75 75 82 93 98 100 102 104 106 106 109 111 109 106 105 106 108 107 108 104 107 109 113 117 118 119 121 123 124 125 126 127 127 125 125 122 120
132 114 138 140 140 116 104 87 78 82 90 99 107 112 106 112 116 118 117 119 116 113 112 112 108 107 106 106 107 110 113 116 116 118 119 119 120 121 123 124 125 128 127 124
Wind_Speed_850mb
14 15 16 33 38 33 32 42 21 61 51 52 33 20 19 17 24 40 52 59 67 62 65 69 75 80 71 72 71 60 67 82 77 60 52 43 40 36 35 28 26 18 20 31
27 25 32 39 36 39 37 38 36 46 64 32 10 3 12 28 46 55 61 64 62 63 69 73 80 76 70 71 61 61 66 55 60 56 47 41 37 34 32 22 10 4 18 32
10 6 21 12 9 7 5 7 10 17 28 14 18 23 39 50 60 60 61 59 66 66 75 83 86 75 66 62 70 76 71 62 58 49 45 35 38 37 26 17 7 8 26 29
10 15 6 10 8 4 20 22 21 31 8 41 48 50 55 59 64 61 57 60 65 74 82 84 80 69 69 83 82 73 66 61 54 46 42 39 44 28 16 13 11 19 23 19
4 5 17 10 4 7 5 46 25 9 24 43 52 50 48 35 28 42 61 72 80 87 82 79 84 96 101 89 65 61 61 50 45 48 55 44 30 15 10 10 17 16 12 8
3 6 9 11 4 47 18 29 11 40 31 34 46 27 35 45 69 73 75 76 75 72 85 100 99 68 68 66 53 51 52 53 52 26 23 28 20 6 12 20 15 9 8 12
9 8 15 9 35 35 7 15 59 70 55 47 31 32 62 78 79 67 63 71 94 94 77 72 64 57 54 49 47 44 41 42 40 35 32 26 14 15 17 21 19 14 17 31
3 7 14 14 34 5 30 57 59 58 69 69 45 60 58 65 75 72 87 84 73 67 69 68 62 55 51 48 39 32 32 34 26 32 30 21 13 31 24 26 26 35 44 46
11 11 24 57 33 49 48 57 65 73 59 53 57 56 64 63 71 67 76 68 63 63 66 66 59 48 45 34 25 22 21 25 24 23 16 16 43 36 37 38 48 54 46 51
7 10 21 45 71 47 70 72 66 49 56 58 58 53 67 63 65 70 61 59 56 61 61 55 50 19 15 14 17 18 22 21 5 30 46 53 44 45 43 61 61 58 47 58
16 34 44 43 36 65 79 50 53 59 46 51 57 56 58 58 58 53 51 51 54 44 42 34 28 31 26 26 32 33 19 38 57 55 56 58 57 52 57 53 53 51 54 60
13 47 43 50 69 60 69 58 67 47 61 48 47 48 47 46 45 42 46 44 36 34 31 32 36 40 35 29 35 47 60 56 55 56 56 55 56 60 48 49 48 44 45 52
22 55 61 63 57 55 64 64 50 55 45 47 44 40 36 38 36 35 33 35 33 32 30 32 36 36 36 42 55 57 56 59 56 60 58 58 58 57 63 52 48 57 69 76
46 40 43 44 58 61 57 57 49 43 39 36 36 32 31 30 31 28 30 27 30 35 38 37 43 44 38 42 47 53 55 54 55 56 56 57 61 67 68 79 90 84 77 77
29 47 53 52 57 54 55 46 43 44 40 38 33 32 27 30 30 32 29 28 31 36 40 38 39 41 38 43 51 53 52 54 53 58 63 73 78 86 97 99 98 91 77 65
36 56 44 49 47 49 44 41 42 41 37 36 32 26 24 26 27 29 31 31 39 43 40 39 37 31 35 42 47 51 54 57 64 76 86 96 101 110 109 99 87 77 70 61
41 44 45 42 45 41 37 37 35 41 36 29 25 20 21 22 28 32 33 34 37 39 38 39 41 32 36 48 55 59 63 66 76 89 103 96 96 93 89 89 81 74 59 50
38 33 35 36 36 32 36 32 45 41 29 21 18 20 24 31 33 35 33 36 38 39 37 36 35 41 47 55 65 73 81 87 93 100 97 91 95 93 83 76 69 61 56 53
33 29 36 28 26 29 30 47 48 24 18 18 19 23 30 36 36 30 34 40 44 43 37 35 36 45 52 59 67 74 82 89 91 85 93 94 87 80 73 66 63 62 60 56
23 30 28 22 25 28 43 52 35 23 21 26 32 49 52 53 50 42 44 47 38 40 39 45 48 51 57 63 69 77 85 85 91 91 82 81 79 72 63 63 62 58 54 49
22 27 21 20 22 32 44 50 46 41 39 51 54 53 51 49 54 56 64 48 47 46 49 52 56 61 66 74 80 79 81 84 84 81 79 76 71 62 61 59 56 52 47 41
17 21 22 22 26 38 46 58 60 59 45 39 41 45 49 49 44 50 51 55 64 71 78 75 71 67 73 80 84 84 84 84 79 73 70 66 63 59 57 53 49 45 41 41
15 17 18 19 24 32 42 46 39 37 30 33 34 38 42 42 39 38 44 49 59 62 61 59 66 77 79 79 77 73 69 64 61 58 57 56 55 52 47 43 42 39 40 42
11 16 13 19 22 47 57 50 32 28 28 30 30 25 29 39 49 62 76 75 77 78 77 70 64 60 60 59 57 54 52 51 50 49 48 46 44 42 41 40 42 42 43 43
13 19 20 28 46 45 27 30 30 39 43 44 43 44 44 48 57 58 65 73 68 61 53 45 45 44 45 47 46 45 44 43 43 42 41 40 41 41 42 41 41 44 44 43
11 15 17 35 35 14 23 41 47 45 43 46 49 50 54 56 57 56 52 46 41 39 39 38 38 40 40 39 38 38 39 39 39 39 39 39 39 39 40 42 43 41 41 40
14 24 31 35 19 27 30 35 46 43 40 40 40 35 33 38 40 38 37 39 38 37 36 35 33 34 36 36 36 35 35 35 35 38 38 38 36 35 36 38 37 36 37 38
Wind_Direction_850mb
264 279 286 278 275 273 262 262 233 275 268 275 270 251 214 233 285 298 298 307 311 311 310 310 307 307 300 299 305 295 292 295 298 299 301 294 287 288 295 274 284 271 298 291
282 269 261 270 273 271 273 278 279 279 274 294 231 162 282 299 309 302 301 303 306 305 304 303 306 304 296 299 294 294 297 294 295 300 299 297 293 284 295 279 284 295 286 288
273 359 301 291 216 175 296 252 308 311 324 359 340 321 313 302 297 291 291 292 293 295 300 306 311 306 297 288 289 293 291 287 287 296 288 297 292 284 291 275 256 261 271 281
286 339 289 257 163 128 331 290 296 272 345 322 303 294 292 297 289 285 286 292 294 299 305 306 305 296 289 288 289 287 282 281 279 282 277 284 283 280 270 273 233 257 269 288
230 254 283 327 1 343 324 299 296 346 309 310 314 313 294 302 298 305 302 302 301 304 302 297 295 291 290 291 290 286 277 265 264 275 277 280 276 272 263 232 219 241 249 296
25 264 262 226 260 336 307 279 142 342 316 301 319 305 300 316 315 312 308 304 300 297 296 292 293 295 289 282 278 265 267 267 275 262 251 253 232 260 267 203 210 203 173 157
248 264 278 245 349 335 65 278 323 322 307 302 299 285 307 312 312 311 306 304 304 301 298 295 297 295 290 286 278 276 273 266 255 248 242 227 196 244 228 205 177 151 136 129
349 242 281 7 350 13 308 312 311 314 313 301 303 309 309 311 311 310 311 310 311 311 309 306 302 295 286 281 277 272 262 255 234 223 217 196 243 194 198 177 162 139 133 123
204 234 282 316 305 300 311 305 312 311 311 321 312 310 310 309 309 315 318 320 322 319 316 311 305 290 276 270 258 241 243 211 203 179 188 184 186 185 168 166 154 134 121 125
352 269 301 314 305 297 316 305 309 314 317 311 308 310 313 316 319 320 325 327 331 332 330 335 329 253 225 199 189 190 177 154 137 141 154 167 175 171 165 154 142 127 131 131
253 279 315 304 302 318 314 315 323 320 315 318 319 319 321 322 322 327 332 339 343 344 3 23 61 101 118 127 132 133 126 139 146 155 159 161 158 153 147 144 139 132 139 140
286 302 289 307 316 320 323 323 322 318 325 328 325 323 327 330 334 340 345 350 359 23 46 62 78 91 99 114 128 135 138 146 149 148 151 151 145 138 140 142 138 137 141 140
288 298 302 308 311 324 324 323 322 329 332 331 331 332 339 339 351 354 0 13 25 45 63 86 97 96 105 123 132 138 142 140 141 138 140 136 136 135 131 129 128 121 124 124
314 316 317 320 316 324 328 325 335 341 343 345 345 349 350 2 9 12 12 30 46 63 73 86 99 102 117 133 138 138 138 137 136 132 131 131 131 128 125 120 116 116 119 121
308 326 326 318 323 329 329 340 348 348 349 354 357 356 7 17 20 31 38 51 67 75 82 90 98 106 121 130 130 129 131 131 130 129 128 128 127 126 124 122 120 120 122 123
318 330 323 329 330 335 342 347 350 359 4 3 2 13 24 27 41 45 48 63 75 78 85 90 93 103 116 125 125 124 124 128 129 129 128 126 125 123 122 122 123 126 124 123
328 324 331 334 338 342 347 351 5 12 6 2 18 28 34 48 62 58 63 71 78 83 87 89 95 107 120 124 123 123 126 129 130 131 126 118 118 119 124 129 126 119 127 132
328 330 337 332 341 350 356 7 7 9 4 13 33 45 52 63 70 70 72 81 87 87 87 94 109 117 121 123 123 126 127 129 130 126 123 122 124 124 125 128 126 129 129 129
341 339 344 354 1 4 17 14 10 14 30 42 50 64 72 77 76 84 87 89 89 88 90 101 109 117 122 126 127 128 130 129 123 121 126 131 135 133 130 132 131 128 124 125
351 344 359 8 15 38 32 32 36 51 67 72 81 90 84 85 75 78 85 82 86 91 105 111 114 116 120 124 127 128 125 121 129 136 138 135 131 132 129 128 125 124 127 127
357 0 21 30 55 44 47 46 46 64 79 99 92 89 86 81 78 76 81 95 91 104 109 111 109 112 116 116 121 122 128 130 130 130 132 135 136 130 128 126 127 129 128 125
15 26 53 71 77 59 54 68 70 82 88 87 91 93 89 82 78 72 73 83 90 100 99 99 99 107 118 124 123 125 127 129 131 131 131 132 132 130 130 130 129 126 124 119
35 51 64 91 92 85 74 67 59 69 75 79 84 91 92 89 80 67 88 98 106 106 104 107 116 119 123 126 127 128 129 129 129 128 129 129 129 129 128 127 124 123 121 121
55 50 91 103 109 105 97 84 61 43 56 72 81 82 79 84 88 96 104 105 106 106 107 111 115 117 118 120 122 124 125 126 125 126 125 125 127 128 128 126 124 124 124 123
43 57 101 119 121 105 74 54 67 79 82 83 90 93 97 98 101 107 110 112 111 108 106 109 114 115 113 114 115 115 116 118 121 123 125 126 127 128 127 128 127 127 125 123
108 93 116 138 131 98 83 75 75 82 93 98 100 102 104 106 106 109 111 109 106 105 106 108 107 108 104 107 109 113 117 118 119 121 123 124 125 126 127 127 125 125 122 120
132 114 138 140 140 116 104 87 78 82 90 99 107 112 106 112 116 118 117 119 116 113 112 112 108 107 106 106 107 110 113 116 116 118 119 119 120 121 123 124 125 128 127 124